Wind_Speed
7 7 7 6 6 6 6 5 5 4 3 2 3 2 2 2 2 2 2 2 2 3 3 4 4 5 5 5 6 6 6 6 7 7 8 9 10 11 12 13 13 14 15 15 15 16 16 16 16
8 8 7 7 7 7 6 5 5 4 2 2 2 2 2 2 2 1 2 2 2 2 3 4 4 4 5 5 5 6 6 7 7 8 8 9 10 12 13 14 14 15 15 16 16 16 16 16 16
9 9 8 8 8 7 6 5 5 4 3 3 2 3 2 2 2 2 2 2 2 2 3 3 4 4 4 4 4 5 5 6 7 8 8 9 10 11 12 13 14 15 15 16 17 17 17 16 16
11 10 10 10 8 8 7 5 4 4 4 4 4 3 2 3 3 2 2 3 3 3 3 3 3 3 3 4 4 4 5 6 6 7 8 9 10 11 12 13 14 15 15 15 16 17 17 17 17
13 12 12 11 10 9 8 6 5 6 5 5 4 3 2 3 3 3 3 3 3 2 3 2 2 2 3 3 4 5 5 6 7 8 9 10 11 12 13 13 14 15 15 16 16 16 16 17 17
15 14 13 12 11 10 9 7 7 7 6 4 4 3 3 3 3 3 3 3 3 2 2 2 2 2 3 4 5 5 6 7 8 8 9 10 11 12 13 14 14 15 15 16 16 17 17 17 17
16 16 15 13 13 12 11 9 8 7 6 5 4 4 3 4 3 3 3 3 2 2 2 2 2 3 3 4 5 6 7 8 8 9 10 11 11 12 13 14 15 15 15 15 16 16 17 17 17
17 17 16 15 14 13 12 11 9 7 7 6 5 4 4 4 5 4 4 3 3 3 2 2 3 4 4 5 6 7 7 8 9 10 11 11 12 12 13 13 14 14 15 15 16 16 17 17 17
19 18 17 16 15 14 13 11 10 9 8 7 7 6 6 5 5 4 4 4 4 3 3 3 4 4 5 6 7 7 8 9 10 10 11 12 13 13 13 13 14 14 14 15 16 16 16 17 17
19 18 18 18 17 16 14 12 11 10 9 8 8 7 7 6 5 5 4 4 4 4 3 3 4 5 5 6 7 8 8 9 10 11 12 13 13 13 14 14 14 14 15 15 16 16 16 17 17
19 19 19 18 18 18 15 14 12 11 10 9 9 8 8 7 6 5 5 4 4 4 3 3 4 5 5 6 7 8 9 10 11 11 12 13 13 14 14 14 14 15 15 15 16 16 16 17 17
19 19 19 19 18 17 15 14 13 12 11 9 9 9 8 8 7 6 5 5 4 4 4 4 5 5 6 7 8 9 9 10 11 12 13 13 14 14 14 14 14 15 15 15 15 16 16 16 17
20 19 19 19 18 18 15 14 13 12 11 10 10 9 9 8 7 6 6 6 5 5 5 5 5 6 6 7 8 9 10 11 12 13 13 14 14 15 15 15 14 14 15 15 15 15 16 16 17
19 18 18 18 18 18 16 13 12 12 11 10 11 10 8 8 7 7 7 6 6 5 5 5 6 6 7 8 9 10 10 11 13 13 14 14 15 15 15 15 15 15 15 15 16 16 16 16 17
17 17 17 17 16 16 16 13 12 11 11 11 11 10 10 9 8 8 7 7 6 6 6 6 6 6 7 8 9 10 11 12 13 13 14 15 16 16 16 16 16 16 16 16 16 16 16 16 17
15 15 15 15 14 14 14 12 11 11 11 11 10 10 10 9 9 8 8 8 7 6 6 6 6 6 7 8 9 10 11 12 13 14 15 16 16 16 16 16 16 16 17 17 17 17 16 16 17
13 13 13 13 12 12 12 11 10 10 10 10 10 9 9 9 9 9 8 8 7 7 7 6 6 6 7 8 9 10 11 12 14 15 16 16 16 17 17 17 17 17 17 17 17 16 16 16 17
12 12 11 11 10 11 11 10 10 9 10 10 10 9 9 9 9 9 8 7 7 7 7 6 6 7 8 9 10 11 12 13 14 15 16 17 17 17 17 17 17 17 17 17 16 16 16 16 17
11 11 10 9 9 9 10 9 9 10 10 10 10 10 9 9 9 9 8 8 8 7 7 6 6 7 7 8 10 11 12 13 14 15 16 17 17 17 17 17 17 17 17 16 16 16 16 16 16
9 9 9 9 8 8 8 8 8 9 9 9 9 9 9 9 9 9 8 8 8 8 7 6 6 7 8 8 10 11 12 13 14 15 16 17 17 17 18 18 17 17 17 16 16 15 15 15 15
7 8 8 8 6 7 7 6 6 7 8 9 9 9 9 9 8 8 8 8 8 8 7 7 6 7 8 9 10 11 12 13 15 16 17 17 17 17 18 18 18 17 17 16 15 15 14 14 14
7 7 7 7 6 5 5 5 6 6 7 8 8 9 9 9 9 8 8 8 8 8 7 7 7 7 8 9 10 11 12 14 15 16 17 17 18 18 18 18 18 17 16 15 15 14 13 12 12
6 6 6 6 6 6 5 5 5 5 6 7 8 8 9 9 9 8 8 8 8 7 7 7 7 8 8 9 10 11 12 14 15 16 17 17 18 18 18 18 18 17 16 15 15 14 13 11 10
6 6 6 5 6 6 6 5 5 4 5 6 8 8 8 8 8 7 7 7 7 7 7 7 8 8 9 9 10 11 12 14 15 16 17 17 18 18 17 18 18 17 16 15 15 14 13 11 10
6 6 6 6 6 6 6 6 5 5 5 5 7 7 7 7 7 6 6 7 7 7 8 8 8 8 9 9 10 12 13 13 14 15 16 17 18 18 17 17 17 17 16 15 15 14 13 11 9
6 6 5 5 5 5 6 7 5 4 4 4 5 6 7 7 7 7 7 7 7 7 7 7 7 8 8 9 10 12 13 13 14 15 16 17 17 17 17 17 17 17 16 15 15 14 13 11 9
6 5 4 4 4 5 5 6 5 4 3 3 4 5 6 6 7 6 7 7 7 7 7 7 7 8 9 10 11 12 13 13 14 15 16 16 17 17 17 17 17 17 16 15 15 14 13 11 9
4 4 4 4 4 5 5 4 5 4 3 3 4 5 6 6 6 6 7 7 7 7 8 8 8 8 9 10 11 12 13 13 14 15 15 16 16 16 16 17 16 16 16 15 14 14 13 12 10
3 3 3 3 3 4 4 3 4 4 4 4 4 5 6 6 7 7 7 7 7 8 8 9 9 9 9 10 11 12 13 13 14 14 15 15 16 16 16 16 16 15 15 15 14 14 13 11 10
2 2 2 2 3 3 3 3 4 5 6 6 6 7 7 7 8 8 8 8 9 9 9 10 10 10 10 11 11 11 12 13 14 14 14 15 15 15 15 15 15 15 15 14 14 14 13 12 9
Wind_Direction
291 295 300 307 312 317 325 332 327 316 305 297 295 287 271 264 272 277 299 308 308 304 302 297 295 296 297 294 292 291 290 291 289 288 285 285 284 283 283 282 280 280 279 277 274 270 267 265 265
284 291 291 299 305 310 315 319 313 308 303 316 305 297 278 270 273 281 294 305 306 308 306 301 301 302 303 299 298 295 296 296 294 293 292 291 289 288 286 283 284 281 279 277 274 271 268 266 266
276 282 284 289 297 300 307 310 305 286 282 289 278 277 278 277 277 288 303 305 299 299 301 303 300 303 305 302 300 302 304 303 300 297 297 297 296 295 294 290 287 284 281 277 274 271 268 266 266
269 273 274 278 286 287 291 297 294 284 278 270 260 253 258 276 276 286 296 299 295 291 292 297 301 307 311 311 313 316 315 313 309 304 302 301 301 301 299 294 290 286 282 279 276 272 268 266 264
264 266 267 270 273 276 278 277 274 283 279 266 256 241 244 256 261 271 282 291 295 292 284 289 301 316 323 325 328 326 322 319 316 311 307 304 303 301 300 297 293 289 284 280 277 273 270 266 263
261 263 265 266 269 270 270 267 267 270 268 261 264 245 238 248 252 264 271 276 286 295 294 290 310 326 331 334 331 327 325 323 320 317 314 310 306 303 300 298 294 291 287 283 278 274 270 267 264
258 261 264 266 268 268 266 261 259 261 260 256 258 256 240 242 245 253 259 268 279 296 303 298 320 330 332 331 327 326 325 324 322 320 318 315 310 305 302 299 295 291 287 284 280 276 270 267 265
255 259 260 263 265 265 260 257 253 250 258 250 247 246 246 247 239 245 258 265 272 286 304 315 328 332 333 329 327 326 324 322 320 320 318 315 312 307 303 302 297 293 288 283 281 279 272 267 265
255 256 258 258 260 261 258 254 254 248 247 243 240 239 245 249 245 246 255 261 267 280 303 320 323 328 331 328 326 324 322 320 319 319 317 315 314 311 306 303 300 295 290 286 282 279 274 269 265
252 254 255 255 256 256 255 253 251 247 244 241 235 231 235 243 250 251 255 261 269 278 292 310 313 319 325 325 325 324 324 322 320 320 319 318 318 315 311 306 302 296 292 288 283 280 274 269 264
250 250 251 252 253 252 250 251 251 250 248 239 234 230 228 236 247 252 254 259 267 273 279 292 304 313 321 322 323 325 325 324 324 323 323 321 320 317 313 308 305 300 296 291 284 280 274 268 263
246 247 248 248 250 247 245 248 247 247 247 235 232 231 227 235 241 247 251 253 257 262 263 279 302 309 315 316 319 323 325 325 326 324 323 323 320 317 313 309 307 303 300 295 289 282 275 269 262
245 246 249 251 250 245 243 246 244 247 247 240 235 230 229 233 238 242 244 247 250 252 258 277 295 305 312 315 319 322 323 325 326 325 325 323 321 319 316 312 308 305 303 299 293 285 278 270 263
245 244 247 247 246 248 241 243 249 247 245 243 239 236 235 235 236 238 240 244 249 251 257 271 288 303 312 317 321 322 325 327 328 328 326 324 323 322 318 313 309 305 303 300 295 288 280 271 264
242 246 248 247 247 248 249 246 249 246 240 239 236 234 236 235 234 237 241 247 250 253 257 269 285 301 313 320 323 324 328 330 331 330 328 326 324 324 321 317 312 307 303 300 296 290 281 272 265
239 245 243 244 248 249 245 249 250 245 239 231 231 231 233 232 232 239 244 247 250 254 258 269 282 300 313 322 326 328 329 330 331 331 330 327 325 324 322 319 315 309 304 300 296 290 283 275 267
234 241 242 240 242 243 245 248 247 239 234 232 233 229 227 228 233 241 244 244 246 251 260 268 282 299 310 321 329 329 329 330 331 332 332 330 328 326 324 321 318 313 308 303 297 291 284 277 269
228 235 236 234 234 237 242 249 246 238 230 226 225 224 225 227 232 241 243 243 245 249 258 267 282 298 311 324 330 331 331 331 331 332 332 333 331 329 328 326 322 319 313 307 300 294 287 280 271
223 228 228 227 231 236 238 246 245 234 228 221 218 221 223 225 232 240 243 244 248 253 258 266 279 296 312 324 330 331 332 332 332 332 334 335 334 333 332 330 327 323 318 312 306 298 291 283 274
217 217 218 220 223 226 227 232 227 221 219 216 218 218 221 227 233 241 247 247 250 257 260 266 275 293 309 321 327 330 332 333 334 336 336 336 336 336 336 333 330 327 323 316 312 304 295 287 276
200 204 205 208 215 217 215 209 210 215 221 222 223 223 227 229 233 243 247 248 250 254 259 266 275 292 306 316 325 329 332 335 337 338 338 338 338 338 337 334 333 330 328 323 318 311 303 291 277
188 193 194 198 203 200 197 195 203 214 221 224 224 223 227 229 234 246 251 250 252 256 260 267 275 289 303 313 323 329 333 335 338 339 339 339 339 339 338 336 334 333 333 330 326 320 312 298 281
187 186 191 190 187 184 184 189 193 204 215 220 223 227 230 234 239 245 247 250 254 259 263 271 277 288 300 312 321 327 331 334 337 338 339 339 339 339 340 339 338 337 338 336 333 328 323 307 287
172 173 172 175 177 177 179 183 182 189 203 212 221 229 237 243 244 245 247 252 255 260 266 273 280 287 298 310 319 324 327 331 335 338 339 339 340 340 341 341 340 340 340 338 336 333 328 316 296
161 164 166 169 171 175 181 184 182 190 208 221 230 235 241 247 253 254 254 255 259 262 268 273 279 285 295 306 315 320 323 327 331 335 338 338 339 341 341 341 342 342 341 340 339 336 333 322 306
153 160 163 164 166 171 184 186 188 203 220 236 241 241 245 251 258 260 256 257 260 263 267 274 283 289 297 306 314 318 322 325 329 333 336 339 340 341 342 343 344 346 345 344 341 339 336 327 315
141 155 168 167 169 183 190 196 201 210 228 250 261 258 255 258 263 262 260 261 262 261 264 271 281 289 297 306 313 319 322 325 328 331 335 339 340 341 342 341 344 346 348 346 344 342 340 333 320
149 150 164 178 189 191 199 217 225 233 260 276 278 268 262 266 267 268 269 268 266 267 268 273 279 286 296 304 311 317 320 322 326 329 333 337 340 342 342 342 344 346 346 346 346 346 342 337 326
160 165 179 192 201 207 218 232 243 259 272 282 284 276 269 267 269 269 270 270 271 272 275 279 283 287 293 301 307 312 316 319 323 327 330 334 338 341 343 343 344 346 347 347 347 345 343 338 329
178 188 195 223 234 237 245 248 261 270 276 277 283 282 275 275 275 275 278 278 278 277 279 282 285 289 291 296 303 308 312 317 321 325 329 333 336 340 342 344 345 347 348 348 348 348 346 343 340
Height
5860 5860 5860 5861 5862 5861 5860 5860 5859 5859 5858 5858 5859 5859 5859 5860 5860 5863 5861 5859 5859 5859 5859 5859 5859 5859 5858 5858 5858 5858 5858 5857 5857 5857 5857 5856 5856 5856 5856 5856 5856 5856 5856 5856 5857 5858 5858 5859 5860
5859 5859 5860 5861 5860 5860 5860 5859 5858 5858 5858 5858 5858 5858 5858 5858 5859 5859 5858 5858 5858 5858 5858 5858 5858 5858 5857 5857 5857 5857 5856 5856 5856 5855 5855 5855 5854 5854 5854 5854 5854 5853 5854 5854 5854 5855 5855 5856 5857
5858 5858 5859 5859 5859 5859 5859 5859 5858 5858 5858 5858 5858 5857 5857 5858 5858 5858 5858 5858 5858 5858 5858 5857 5857 5857 5857 5856 5856 5856 5855 5855 5854 5854 5853 5853 5852 5852 5851 5851 5851 5851 5851 5851 5851 5852 5852 5853 5854
5856 5857 5858 5858 5858 5858 5858 5858 5857 5857 5857 5857 5857 5857 5857 5857 5857 5857 5857 5857 5857 5857 5857 5857 5856 5856 5856 5855 5855 5855 5854 5853 5853 5852 5852 5851 5851 5850 5849 5849 5848 5848 5848 5848 5848 5848 5849 5850 5851
5854 5855 5856 5856 5855 5856 5856 5856 5856 5856 5856 5856 5856 5855 5856 5856 5856 5856 5857 5857 5857 5857 5856 5856 5856 5855 5855 5855 5854 5854 5853 5852 5852 5851 5850 5850 5849 5848 5847 5846 5846 5845 5845 5844 5844 5845 5846 5846 5847
5852 5852 5853 5853 5853 5854 5854 5855 5855 5855 5855 5855 5855 5855 5855 5855 5855 5856 5856 5856 5856 5856 5856 5855 5855 5855 5854 5854 5853 5853 5852 5851 5850 5849 5848 5847 5847 5846 5845 5844 5843 5842 5842 5841 5841 5841 5842 5843 5844
5849 5850 5850 5851 5851 5852 5853 5853 5853 5853 5853 5854 5854 5854 5854 5854 5855 5855 5855 5855 5855 5855 5855 5855 5854 5854 5853 5853 5852 5852 5851 5850 5849 5848 5846 5845 5844 5843 5842 5841 5840 5839 5838 5838 5838 5838 5838 5839 5840
5845 5847 5847 5848 5849 5850 5850 5850 5851 5851 5852 5852 5853 5853 5853 5854 5854 5854 5854 5854 5855 5854 5854 5854 5853 5853 5853 5852 5851 5850 5849 5848 5847 5846 5845 5843 5842 5841 5839 5838 5837 5836 5835 5835 5835 5835 5835 5835 5836
5841 5844 5844 5845 5846 5847 5847 5848 5849 5850 5850 5850 5851 5852 5852 5852 5853 5853 5854 5854 5854 5854 5853 5853 5853 5852 5851 5851 5850 5849 5848 5847 5845 5844 5843 5841 5840 5838 5837 5835 5834 5833 5832 5832 5831 5831 5831 5832 5832
5838 5840 5841 5842 5843 5844 5845 5846 5847 5847 5848 5849 5849 5850 5851 5851 5852 5852 5853 5853 5853 5853 5853 5852 5852 5851 5850 5850 5849 5848 5846 5845 5843 5842 5840 5839 5837 5835 5834 5832 5831 5830 5829 5828 5828 5827 5827 5828 5828
5834 5836 5837 5838 5839 5840 5842 5843 5844 5845 5846 5847 5848 5849 5849 5850 5851 5851 5851 5852 5852 5852 5851 5851 5851 5850 5849 5849 5847 5846 5845 5843 5841 5840 5838 5836 5834 5833 5831 5829 5828 5826 5825 5824 5824 5823 5823 5824 5824
5830 5832 5833 5834 5835 5837 5839 5841 5842 5843 5844 5845 5846 5847 5848 5849 5849 5850 5850 5850 5850 5850 5850 5850 5849 5849 5848 5847 5846 5844 5843 5841 5840 5838 5836 5834 5832 5830 5828 5826 5824 5823 5822 5820 5820 5819 5819 5819 5820
5826 5828 5830 5831 5832 5834 5835 5837 5839 5841 5842 5843 5844 5845 5846 5847 5848 5848 5848 5849 5849 5849 5849 5848 5848 5847 5847 5845 5844 5843 5841 5839 5837 5835 5833 5831 5829 5827 5825 5823 5821 5819 5818 5817 5816 5815 5815 5815 5815
5823 5825 5826 5827 5829 5831 5833 5835 5837 5839 5839 5841 5842 5843 5844 5845 5846 5846 5847 5847 5847 5847 5847 5847 5846 5846 5845 5843 5842 5841 5839 5837 5835 5832 5830 5828 5826 5824 5821 5819 5817 5816 5814 5812 5811 5810 5810 5810 5811
5820 5822 5824 5825 5827 5828 5831 5833 5835 5836 5837 5838 5840 5841 5842 5843 5844 5844 5845 5845 5846 5846 5845 5845 5845 5844 5843 5842 5840 5839 5837 5835 5833 5830 5828 5826 5823 5820 5818 5816 5813 5812 5810 5808 5807 5806 5805 5805 5806
5818 5820 5822 5823 5824 5826 5830 5831 5833 5833 5835 5836 5838 5839 5840 5841 5842 5843 5843 5844 5844 5844 5844 5844 5843 5842 5841 5840 5839 5837 5835 5833 5830 5828 5825 5823 5820 5817 5815 5812 5810 5807 5806 5804 5802 5801 5800 5800 5801
5815 5817 5819 5821 5822 5824 5826 5828 5830 5831 5833 5834 5836 5837 5838 5839 5840 5841 5842 5842 5842 5842 5842 5842 5841 5841 5840 5838 5837 5835 5833 5831 5828 5826 5823 5820 5817 5814 5811 5809 5806 5803 5801 5799 5798 5796 5796 5795 5796
5813 5816 5817 5819 5821 5822 5824 5826 5827 5829 5831 5832 5834 5836 5836 5837 5838 5839 5840 5840 5840 5840 5840 5840 5839 5839 5838 5836 5835 5833 5831 5829 5826 5824 5821 5817 5814 5811 5808 5805 5802 5800 5797 5795 5793 5792 5791 5790 5790
5811 5814 5816 5818 5819 5821 5823 5824 5825 5827 5828 5830 5832 5834 5835 5836 5837 5837 5837 5838 5838 5839 5839 5838 5837 5837 5836 5834 5833 5831 5829 5827 5824 5821 5818 5815 5811 5808 5805 5802 5799 5796 5793 5791 5789 5787 5786 5785 5785
5810 5813 5815 5817 5818 5820 5822 5823 5824 5825 5827 5829 5831 5832 5833 5834 5835 5835 5835 5836 5836 5837 5837 5836 5836 5835 5834 5833 5831 5829 5827 5825 5822 5819 5816 5813 5809 5806 5803 5799 5796 5793 5790 5787 5785 5782 5781 5780 5780
5810 5812 5814 5816 5818 5819 5821 5823 5824 5825 5826 5827 5829 5830 5831 5832 5832 5833 5834 5834 5834 5834 5834 5834 5834 5833 5832 5831 5829 5828 5825 5823 5820 5817 5814 5811 5807 5804 5800 5797 5793 5790 5787 5784 5781 5779 5777 5776 5775
5810 5812 5814 5816 5817 5819 5821 5822 5823 5824 5825 5826 5828 5829 5830 5830 5831 5831 5832 5832 5832 5832 5832 5832 5831 5831 5830 5829 5828 5826 5824 5821 5818 5815 5812 5809 5805 5802 5798 5795 5791 5787 5784 5781 5778 5775 5773 5772 5771
5810 5812 5814 5815 5817 5819 5821 5823 5824 5824 5825 5826 5827 5828 5829 5829 5829 5829 5830 5830 5830 5830 5830 5830 5829 5829 5828 5827 5826 5824 5822 5819 5817 5814 5810 5807 5803 5800 5796 5793 5789 5785 5782 5779 5776 5773 5770 5769 5768
5811 5813 5814 5816 5818 5820 5821 5822 5823 5824 5824 5825 5826 5826 5827 5827 5827 5828 5828 5828 5828 5828 5828 5827 5827 5826 5826 5825 5824 5822 5820 5818 5815 5812 5809 5806 5802 5798 5795 5791 5787 5783 5780 5777 5774 5771 5768 5766 5765
5812 5814 5815 5816 5818 5820 5821 5822 5824 5824 5824 5824 5825 5825 5825 5826 5826 5826 5826 5826 5826 5826 5826 5825 5825 5824 5824 5823 5822 5820 5818 5816 5813 5810 5807 5804 5800 5797 5793 5789 5786 5782 5778 5775 5772 5769 5767 5765 5763
5812 5814 5817 5818 5818 5820 5821 5822 5824 5824 5824 5824 5824 5824 5824 5824 5824 5824 5824 5824 5824 5824 5824 5823 5823 5822 5822 5821 5819 5818 5816 5814 5811 5809 5806 5802 5799 5795 5792 5788 5784 5781 5777 5774 5771 5768 5765 5763 5761
5813 5814 5816 5818 5818 5820 5821 5822 5823 5823 5823 5823 5823 5823 5823 5823 5823 5823 5822 5822 5822 5822 5822 5821 5821 5820 5820 5819 5817 5816 5814 5812 5810 5807 5804 5801 5797 5794 5790 5787 5783 5780 5776 5773 5770 5767 5764 5762 5760
5815 5815 5816 5817 5818 5819 5821 5821 5823 5823 5823 5823 5822 5822 5822 5821 5821 5821 5821 5821 5820 5820 5820 5819 5818 5818 5817 5816 5815 5814 5812 5810 5808 5805 5802 5799 5796 5793 5789 5785 5782 5779 5776 5772 5769 5766 5763 5761 5758
5815 5816 5816 5817 5818 5820 5820 5823 5822 5822 5822 5822 5821 5821 5820 5820 5819 5819 5819 5818 5818 5818 5817 5817 5816 5816 5815 5814 5813 5812 5810 5808 5806 5803 5800 5798 5795 5791 5788 5784 5781 5778 5775 5772 5768 5765 5762 5759 5757
5815 5816 5816 5817 5818 5819 5820 5823 5820 5820 5820 5820 5820 5820 5819 5818 5818 5817 5817 5816 5816 5815 5815 5814 5814 5813 5813 5812 5810 5809 5808 5806 5804 5801 5799 5796 5793 5790 5787 5783 5780 5777 5774 5771 5768 5765 5761 5758 5756